Regional Weather Roundup
Issued by NWS

Home | Current Version | Previous Version | Graphics & Text | Print | Product List | Glossary On
Versions: 1 2 3 4 5 6 7 8 9 10 11 12 13 14 15 16 17 18 19 20 21 22 23 24 25 26 27 28 29 30 31 32 33 34 35 36 37 38 39 40 41 42 43 44 45 46 47 48 49 50
000
ASUS43 KLSX 200257
RWRMO

WEATHER SUMMARY FOR MISSOURI
NATIONAL WEATHER SERVICE SPRINGFIELD MO
900 PM CST SUN NOV 19 2017

NOTE: "FAIR" INDICATES FEW OR NO CLOUDS BELOW 12,000 FEET WITH NO
       SIGNIFICANT WEATHER AND/OR OBSTRUCTIONS TO VISIBILITY.
       CURRENT SKY AND/OR WEATHER CONDITIONS ARE NOT AVAILABLE FOR
       CHILLICOTHE AND FARMINGTON.

MOZ001>031-035>038-043-044-053-054-200400-
...NORTHERN AND WESTERN MISSOURI...

CITY           SKY/WX    TMP DP  RH WIND       PRES   REMARKS
KANSAS CTY INT CLEAR     44  30  57 S13       30.05S
LEE`S SUMMIT   CLEAR     44  31  60 S21       30.06F
ST JOSEPH      CLEAR     42  30  62 S8        30.03F
CHILLICOTHE      N/A     41  29  62 S8        30.07F

$$
MOZ066>068-077>081-088>096-101>105-200400-
...SOUTHWEST MISSOURI...

CITY           SKY/WX    TMP DP  RH WIND       PRES   REMARKS
SPRINGFIELD    CLEAR     36  27  69 S7        30.17S
JOPLIN         CLOUDY    40  30  67 S6        30.17S
BRANSON        CLEAR     39  25  56 CALM      30.21S

$$
MOZ032>034-039>042-045>050-055>058-069>072-200400-
...CENTRAL MISSOURI...

CITY           SKY/WX    TMP DP  RH WIND       PRES   REMARKS
COLUMBIA       NOT AVBL
JEFFERSON CITY CLEAR     37  24  59 E6        30.16F
ROLLA          CLEAR     32  22  66 S9        30.17F WCI  24
SEDALIA        CLEAR     40  30  67 S9        30.12F
WARRENSBURG    CLEAR     39  30  70 S9        30.09F

$$
MOZ051-052-059>065-200400-
...EAST CENTRAL MISSOURI...

CITY           SKY/WX    TMP DP  RH WIND       PRES   REMARKS
ST LOUIS INTL  CLEAR     33  24  69 CALM      30.19S

$$
MOZ072>076-082>087-097>100-106>115-200400-
...SOUTH CENTRAL AND SOUTHEAST MISSOURI...

CITY           SKY/WX    TMP DP  RH WIND       PRES   REMARKS
CAPE GIRARDEAU CLEAR     30  25  81 CALM      30.24S
POPLAR BLUFF   CLEAR     31  25  78 CALM      30.25R
WEST PLAINS    CLEAR     30  21  69 CALM      30.21S

$$



USA.gov is the U.S. government's official web portal to all federal, state and local government web resources and services.